User: anonymous   Login
Location: P�rn�nmaa
(61.1833°N, 23.0000°E)
Time: 00:36:39
(UTC+00:00)
Language:

Cosmos 921 Rocket - Orbit

View from above orbital plane
View from above orbital plane
View from above satellite
View from above satellite

Ground track
Ground track

The orbit data is extracted from the following two-line orbital elements,

1 10096U 77055B   20047.47793600 +.00000028 +00000-0 +51915-5 0  9995
2 10096 075.8328 068.9092 0043520 245.2745 114.3914 14.88691571307012
Epoch (UTC): 16 February 2020 11:28:13
Eccentricity: 0.0043520
inclination: 75.8328°
perigee height: 571 km
apogee height: 632 km
right ascension of ascending node: 68.9092°
argument of perigee: 245.2745°
revolutions per day: 14.88691571
mean anomaly at epoch: 114.3914°
orbit number at epoch: 30701

The dashed part of the orbit path shows where the satellite is in the earth's shadow,  

DLR